Location: Drebach
(50.6670°N, 13.0330°E)
Time: 06:49:36
(UTC+01:00)

ISS - Pass Details

Date: 24 January 2021
Orbit: 417 x 422 km, 51.6° (Epoch: 08 March)

Event Time Altitude Azimuth Distance (km) Brightness Sun altitude
Rises 18:44:48 0° 254° (WSW) 2,368 1.7 -18.5°
Reaches altitude 10° 18:46:54 10° 254° (WSW) 1,506 0.3 -18.8°
Maximum altitude 18:50:17 87° 171° (S) 428 -3.9 -19.3°
Enters shadow 18:50:30 77° 89° (E) 437 -3.9 -19.4°
